Home > Time Zones > World Clock > Weather > U.S.A. > Hilo > Past weeks

Flag for U.S.A. Weather past 2 weeks in Hilo, Hawaii, U.S.A.

Now
65 °F

Partly sunny.


Feels Like: 65 °F
Forecast: 63 / 77 °F
Wind: 7 mph from Southwest

Location: Hilo International Airport

Current Time: Dec 27, 2014 at 7:23:01 AM

Latest Report: Dec 27, 2014 at 6:53 AM


Visibility: 10 mi

Pressure: 29.83 "Hg

Humidity: 73%

Dew point: 56 °F

Location of HiloLocation

Historic Weather in Hilo — Graph

°F

Hilo temperature yesterday

Maximum temperature yesterday: 80 °F (at 10:53 AM)
Minimum temperature yesterday: 64 °F (at 5:53 AM)
Average temperature yesterday: 72 °F

Past Weeks' High & Low Weather Summary

 TemperatureHumidityPressure
High82 °F (Dec 21, 11:36 AM)100% (Dec 12, 5:24 PM)30.19 "Hg (Dec 12, 5:24 PM)
Low64 °F (Dec 26, 5:53 AM)52% (Dec 22, 9:53 AM)29.72 "Hg (Dec 25, 2:53 PM)
Average72 °F81%30.01 "Hg
* Reported Dec 12 5:35 AM — Dec 27 5:53 AM, Hilo, Weather by CustomWeather, © 2014

Note: Actual official high and low records may vary slightly from our data, if they occured in-between our weather recording intervals... More about our weather records

Advertising

Hilo weather history for previous 24 hours

 ConditionsComfort  
Time TempWeatherWind HumidityBarometerVisibility
5:53 AM
Dec 27
66 °FClear.7 mph73%29.83 "Hg10 mi
4:53 AM67 °FPassing clouds.7 mph71%29.81 "Hg10 mi
3:53 AM67 °FPassing clouds.6 mph73%29.80 "Hg10 mi
2:53 AM67 °FPassing clouds.6 mph79%29.80 "Hg10 mi
1:53 AM68 °FPassing clouds.5 mph73%29.81 "Hg10 mi
12:53 AM68 °FOvercast.7 mph76%29.82 "Hg10 mi
11:53 PM
Dec 26
67 °FPassing clouds.5 mph81%29.83 "Hg10 mi
10:53 PM68 °FClear.7 mph84%29.82 "Hg10 mi
9:53 PM69 °FClear.5 mph87%29.83 "Hg10 mi
8:53 PM71 °FOvercast.6 mph84%29.82 "Hg10 mi
8:31 PM72 °FPassing clouds.5 mph83%29.83 "Hg10 mi
7:53 PM72 °FMostly cloudy.No wind84%29.83 "Hg10 mi
6:53 PM72 °FOvercast.No wind84%29.78 "Hg10 mi
5:53 PM75 °FPassing clouds.No wind74%29.77 "Hg10 mi
4:53 PM76 °FScattered clouds.3 mph69%29.76 "Hg10 mi
3:53 PM77 °FPartly sunny.5 mph64%29.75 "Hg10 mi
2:53 PM78 °FPartly sunny.7 mph62%29.74 "Hg10 mi
1:53 PM80 °FPassing clouds.10 mph58%29.75 "Hg10 mi
12:53 PM80 °FPassing clouds.8 mph58%29.77 "Hg10 mi
11:53 AM80 °FPassing clouds.7 mph54%29.82 "Hg10 mi
10:53 AM80 °FPassing clouds.7 mph56%29.84 "Hg10 mi
9:53 AM77 °FPassing clouds.No wind62%29.85 "Hg10 mi
8:53 AM73 °FPassing clouds.5 mph69%29.85 "Hg10 mi
7:53 AM66 °FPassing clouds.7 mph78%29.83 "Hg10 mi
Weather by CustomWeather, © 2014

See weather overviewHow to use our weather pages